When you browse on this site, cookies collect data to enhance your experience and personalize the content and advertising you see.
Visit our Privacy Policy to learn more. By continuing to use the site, you agree to this use of cookies and data.
  • Em Portugal
  • Lista de países
  • Para 7 dias
  • Temperatura da água
  • Mapa do tempo
  • Widgets de tempo
  • user-avatar
    Iniciar Sessão

    Previsão horária em Mozir

    Hoje, 30 Maio, Sábado

    Tempo Temperatura Precipitação Vento Pressão Humidade
    00:00 +12°C° 0.1 mm 5 m/s 742 mmHg 95%
    01:00 +13°C° 0.1 mm 5 m/s 742 mmHg 95%
    02:00 +13°C° 0 mm 4 m/s 741 mmHg 94%
    03:00 +13°C° 1.9 mm 5 m/s 741 mmHg 95%
    04:00 +13°C° 1.9 mm 5 m/s 740 mmHg 96%
    05:00 +13°C° 1.9 mm 5 m/s 740 mmHg 97%
    06:00 +13°C° 1.7 mm 5 m/s 739 mmHg 97%
    07:00 +13°C° 1.7 mm 5 m/s 739 mmHg 97%
    08:00 +13°C° 0 mm 4 m/s 738 mmHg 98%
    09:00 +14°C° 0.3 mm 4 m/s 738 mmHg 97%
    10:00 +14°C° 0.3 mm 4 m/s 737 mmHg 96%
    11:00 +14°C° 0.3 mm 5 m/s 736 mmHg 95%
    12:00 +15°C° 0.5 mm 5 m/s 736 mmHg 95%
    13:00 +15°C° 0.5 mm 5 m/s 735 mmHg 95%
    14:00 +16°C° 0.5 mm 5 m/s 734 mmHg 94%
    15:00 +15°C° 4 mm 4 m/s 734 mmHg 96%
    16:00 +15°C° 4 mm 4 m/s 733 mmHg 97%
    17:00 +15°C° 4 mm 4 m/s 732 mmHg 98%
    18:00 +16°C° 1.3 mm 3 m/s 732 mmHg 97%
    19:00 +16°C° 1.3 mm 3 m/s 733 mmHg 97%
    20:00 +14°C° 1.3 mm 3 m/s 733 mmHg 96%
    21:00 +14°C° 0.1 mm 4 m/s 733 mmHg 96%
    22:00 +13°C° 0.1 mm 4 m/s 734 mmHg 96%
    23:00 +13°C° 0.1 mm 5 m/s 734 mmHg 96%

    Amanhã, 31 Maio, Domingo

    Tempo Temperatura Precipitação Vento Pressão Humidade
    00:00 +12°C° 0 mm 4 m/s 735 mmHg 96%
    01:00 +12°C° 0 mm 4 m/s 736 mmHg 96%
    02:00 +11°C° 0 mm 3 m/s 736 mmHg 97%
    03:00 +11°C° 0 mm 3 m/s 736 mmHg 97%
    04:00 +11°C° 0 mm 3 m/s 737 mmHg 97%
    05:00 +11°C° 0 mm 3 m/s 737 mmHg 97%
    06:00 +12°C° 0 mm 3 m/s 737 mmHg 94%
    07:00 +12°C° 0 mm 3 m/s 738 mmHg 92%
    08:00 +13°C° 0 mm 3 m/s 738 mmHg 90%
    09:00 +13°C° 0 mm 3 m/s 739 mmHg 87%
    10:00 +14°C° 0 mm 3 m/s 739 mmHg 83%
    11:00 +14°C° 0 mm 3 m/s 740 mmHg 80%
    12:00 +16°C° 0 mm 3 m/s 740 mmHg 76%
    13:00 +17°C° 0 mm 2 m/s 740 mmHg 72%
    14:00 +18°C° 0 mm 2 m/s 740 mmHg 67%
    15:00 +18°C° 0.2 mm 3 m/s 741 mmHg 70%
    16:00 +18°C° 0.2 mm 3 m/s 741 mmHg 72%
    17:00 +18°C° 0.2 mm 3 m/s 741 mmHg 75%
    18:00 +15°C° 0.4 mm 4 m/s 742 mmHg 81%
    19:00 +13°C° 0.4 mm 5 m/s 742 mmHg 87%
    20:00 +11°C° 0.4 mm 6 m/s 742 mmHg 94%
    21:00 +10°C° 0.1 mm 6 m/s 743 mmHg 93%
    22:00 +10°C° 0.1 mm 5 m/s 743 mmHg 92%
    23:00 +9°C° 0.1 mm 5 m/s 744 mmHg 92%

    Depois de amanhã, 1 Junho, Segunda-feira

    Tempo Temperatura Precipitação Vento Pressão Humidade
    00:00 +9°C° 0.1 mm 5 m/s 744 mmHg 92%
    01:00 +9°C° 0.1 mm 5 m/s 744 mmHg 92%
    02:00 +8°C° 0.1 mm 4 m/s 744 mmHg 93%
    03:00 +8°C° 0 mm 5 m/s 744 mmHg 92%
    04:00 +7°C° 0 mm 5 m/s 744 mmHg 92%
    05:00 +7°C° 0 mm 6 m/s 745 mmHg 91%
    06:00 +8°C° 0 mm 6 m/s 745 mmHg 87%
    07:00 +8°C° 0 mm 6 m/s 746 mmHg 83%
    08:00 +9°C° 0 mm 6 m/s 746 mmHg 78%
    09:00 +10°C° 0 mm 6 m/s 746 mmHg 72%
    10:00 +11°C° 0 mm 6 m/s 746 mmHg 66%
    11:00 +13°C° 0 mm 6 m/s 746 mmHg 60%
    12:00 +13°C° 0 mm 6 m/s 746 mmHg 60%
    13:00 +13°C° 0 mm 6 m/s 746 mmHg 59%
    14:00 +13°C° 0 mm 6 m/s 746 mmHg 59%
    15:00 +13°C° 0.1 mm 6 m/s 746 mmHg 61%
    16:00 +11°C° 0.1 mm 6 m/s 746 mmHg 62%
    17:00 +12°C° 0.1 mm 5 m/s 746 mmHg 64%
    18:00 +10°C° 0 mm 5 m/s 746 mmHg 69%
    19:00 +10°C° 0 mm 4 m/s 746 mmHg 75%
    20:00 +8°C° 0 mm 3 m/s 746 mmHg 80%
    21:00 +8°C° 0 mm 3 m/s 746 mmHg 84%
    22:00 +7°C° 0 mm 3 m/s 746 mmHg 89%
    23:00 +5°C° 0 mm 4 m/s 747 mmHg 93%

    2 Junho, Terça-feira

    Tempo Temperatura Precipitação Vento Pressão Humidade
    00:00 +5°C° 0 mm 4 m/s 746 mmHg 94%
    01:00 +4°C° 0 mm 4 m/s 746 mmHg 95%
    02:00 +4°C° 0 mm 4 m/s 746 mmHg 97%
    03:00 +4°C° 0 mm 3 m/s 746 mmHg 96%
    04:00 +4°C° 0 mm 3 m/s 746 mmHg 96%
    05:00 +4°C° 0 mm 3 m/s 746 mmHg 96%
    06:00 +5°C° 0.1 mm 3 m/s 746 mmHg 92%
    07:00 +7°C° 0.1 mm 4 m/s 746 mmHg 88%
    08:00 +8°C° 0.1 mm 4 m/s 746 mmHg 84%
    09:00 +10°C° 0.1 mm 4 m/s 746 mmHg 80%
    10:00 +12°C° 0.1 mm 4 m/s 745 mmHg 76%
    11:00 +13°C° 0.1 mm 5 m/s 745 mmHg 72%
    12:00 +13°C° 0.4 mm 5 m/s 745 mmHg 73%
    13:00 +13°C° 0.4 mm 5 m/s 744 mmHg 73%
    14:00 +13°C° 0.4 mm 5 m/s 744 mmHg 74%
    15:00 +13°C° 0.2 mm 5 m/s 744 mmHg 77%
    16:00 +12°C° 0.2 mm 5 m/s 743 mmHg 79%
    17:00 +12°C° 0.2 mm 4 m/s 743 mmHg 82%
    18:00 +10°C° 2 mm 5 m/s 743 mmHg 87%
    19:00 +10°C° 2 mm 5 m/s 742 mmHg 92%
    20:00 +9°C° 2 mm 5 m/s 742 mmHg 97%
    21:00 +9°C° 2.4 mm 5 m/s 742 mmHg 96%
    22:00 +9°C° 2.4 mm 6 m/s 742 mmHg 96%
    23:00 +10°C° 2.4 mm 6 m/s 741 mmHg 96%

    3 Junho, Quarta-feira

    Tempo Temperatura Precipitação Vento Pressão Humidade
    00:00 +10°C° 1.5 mm 6 m/s 741 mmHg 96%
    01:00 +10°C° 1.5 mm 6 m/s 740 mmHg 96%
    02:00 +10°C° 1.5 mm 6 m/s 740 mmHg 96%
    03:00 +10°C° 0.3 mm 5 m/s 740 mmHg 97%
    04:00 +11°C° 0.3 mm 4 m/s 740 mmHg 97%
    05:00 +11°C° 0.3 mm 4 m/s 740 mmHg 97%
    06:00 +12°C° 0.2 mm 4 m/s 740 mmHg 97%
    07:00 +12°C° 0.2 mm 4 m/s 740 mmHg 96%
    08:00 +12°C° 0.2 mm 4 m/s 740 mmHg 96%
    09:00 +13°C° 0.5 mm 4 m/s 740 mmHg 94%
    10:00 +13°C° 0.5 mm 4 m/s 740 mmHg 92%
    11:00 +14°C° 0.5 mm 4 m/s 740 mmHg 91%
    12:00 +16°C° 0.9 mm 3 m/s 740 mmHg 85%
    13:00 +17°C° 0.9 mm 3 m/s 740 mmHg 80%
    14:00 +18°C° 0.9 mm 3 m/s 740 mmHg 75%
    15:00 +18°C° 0.1 mm 3 m/s 740 mmHg 73%
    16:00 +19°C° 0.1 mm 2 m/s 740 mmHg 72%
    17:00 +19°C° 0.1 mm 2 m/s 740 mmHg 70%
    18:00 +17°C° 0.1 mm 2 m/s 741 mmHg 76%
    19:00 +16°C° 0.1 mm 1 m/s 741 mmHg 82%
    20:00 +14°C° 0.1 mm 1 m/s 741 mmHg 87%
    21:00 +13°C° 0 mm 1 m/s 741 mmHg 88%
    22:00 +13°C° 0 mm 1 m/s 741 mmHg 89%
    23:00 +12°C° 0 mm 1 m/s 741 mmHg 90%

    4 Junho, Quinta-feira

    Tempo Temperatura Precipitação Vento Pressão Humidade
    00:00 +12°C° 0 mm 1 m/s 741 mmHg 92%
    01:00 +12°C° 0 mm 1 m/s 741 mmHg 93%
    02:00 +12°C° 0 mm 1 m/s 741 mmHg 95%
    03:00 +12°C° 0.4 mm 1 m/s 741 mmHg 96%
    04:00 +12°C° 0.4 mm 1 m/s 740 mmHg 97%
    05:00 +12°C° 0.4 mm 1 m/s 740 mmHg 98%
    06:00 +13°C° 2.4 mm 2 m/s 740 mmHg 98%
    07:00 +12°C° 2.4 mm 3 m/s 740 mmHg 98%
    08:00 +12°C° 2.4 mm 3 m/s 739 mmHg 98%
    09:00 +13°C° 1.5 mm 4 m/s 739 mmHg 97%
    10:00 +13°C° 1.5 mm 5 m/s 739 mmHg 96%
    11:00 +13°C° 1.5 mm 5 m/s 739 mmHg 96%
    12:00 +13°C° 0.2 mm 5 m/s 739 mmHg 94%
    13:00 +14°C° 0.2 mm 5 m/s 739 mmHg 93%
    14:00 +14°C° 0.2 mm 5 m/s 739 mmHg 91%
    15:00 +14°C° 0 mm 5 m/s 739 mmHg 88%
    16:00 +14°C° 0 mm 5 m/s 739 mmHg 85%
    17:00 +14°C° 0 mm 5 m/s 739 mmHg 82%
    18:00 +13°C° 0 mm 5 m/s 739 mmHg 84%
    19:00 +12°C° 0 mm 4 m/s 739 mmHg 86%
    20:00 +11°C° 0 mm 4 m/s 739 mmHg 89%
    21:00 +10°C° 0 mm 3 m/s 739 mmHg 91%
    22:00 +9°C° 0 mm 3 m/s 739 mmHg 94%
    23:00 +9°C° 0 mm 2 m/s 739 mmHg 96%
    Mostrar mais